GW2606 Weather Reports


Display with metric or nautical units.
time (UTC)temp
F
wind
direction
speed
MPH
gust
MPH
rain 1hr
in
rain 24hr
in
rain mn
in
humidity
%
barometer
mb
20260506134548 76 157 4.0 10.0 0.00 0.00 0.00 87 1008.6
20260506134037 76 146 4.0 11.0 0.00 0.00 0.00 87 1008.6
20260506133538 76 174 4.0 11.0 0.00 0.00 0.00 88 1008.5
20260506133048 76 116 5.0 12.0 0.00 0.00 0.00 88 1008.4
20260506132537 76 117 6.0 12.0 0.00 0.00 0.00 88 1008.5
20260506132039 76 141 4.0 10.0 0.00 0.00 0.00 88 1008.3
20260506131558 76 164 6.0 13.0 0.00 0.00 0.00 88 1008.2
20260506131035 76 160 7.0 13.0 0.00 0.00 0.00 88 1008.2
20260506130535 76 136 5.0 11.0 0.00 0.00 0.00 88 1008.2
20260506130052 75 121 7.0 12.0 0.00 0.00 0.00 88 1008.1
20260506125534 75 151 7.0 12.0 0.00 0.00 0.00 88 1008.0
20260506125035 75 117 8.0 12.0 0.00 0.00 0.00 88 1007.8
20260506124543 75 127 6.0 12.0 0.00 0.00 0.00 88 1007.9
20260506124034 75 146 6.0 12.0 0.00 0.00 0.00 88 1007.8
20260506123536 75 140 7.0 15.0 0.00 0.00 0.00 88 1007.7
20260506123045 75 123 6.0 15.0 0.00 0.00 0.00 88 1007.8
20260506122539 75 132 6.0 11.0 0.00 0.00 0.00 88 1007.7
20260506122037 75 120 5.0 11.0 0.00 0.00 0.00 88 1007.6
20260506121547 75 136 7.0 13.0 0.00 0.00 0.00 88 1007.6
20260506121034 75 146 6.0 13.0 0.00 0.00 0.00 88 1007.6
20260506120538 75 123 6.0 12.0 0.00 0.00 0.00 88 1007.7
20260506120046 75 109 7.0 12.0 0.00 0.00 0.00 88 1007.6
20260506115535 76 130 6.0 12.0 0.00 0.00 0.00 87 1007.5
20260506115036 76 87 5.0 12.0 0.00 0.00 0.00 87 1007.5
20260506114553 76 117 8.0 12.0 0.00 0.00 0.00 87 1007.5
20260506114035 76 150 6.0 10.0 0.00 0.00 0.00 87 1007.5
20260506113535 76 147 6.0 11.0 0.00 0.00 0.00 87 1007.5
20260506113050 76 135 6.0 11.0 0.00 0.00 0.00 87 1007.5
20260506112535 76 126 4.0 10.0 0.00 0.00 0.00 87 1007.6
20260506112035 76 121 6.0 10.0 0.00 0.00 0.00 87 1007.6
20260506111552 76 96 4.0 11.0 0.00 0.00 0.00 87 1007.5
20260506111036 76 87 6.0 11.0 0.00 0.00 0.00 87 1007.5
20260506110535 76 124 7.0 11.0 0.00 0.00 0.00 87 1007.4
20260506110050 76 151 4.0 10.0 0.00 0.00 0.00 87 1007.3
20260506105535 76 142 6.0 10.0 0.00 0.00 0.00 86 1007.3
20260506105035 76 121 5.0 11.0 0.00 0.00 0.00 86 1007.3
20260506104549 76 121 6.0 11.0 0.00 0.00 0.00 86 1007.3
20260506104035 76 142 4.0 11.0 0.00 0.00 0.00 86 1007.3
20260506103535 76 119 4.0 11.0 0.00 0.00 0.00 86 1007.3
20260506103050 76 138 4.0 10.0 0.00 0.00 0.00 86 1007.2
20260506102535 76 124 5.0 12.0 0.00 0.00 0.00 86 1007.2
20260506102035 76 102 5.0 12.0 0.00 0.00 0.00 86 1007.2
20260506101549 77 96 7.0 11.0 0.00 0.00 0.00 86 1007.2
20260506101035 77 109 5.0 10.0 0.00 0.00 0.00 85 1007.3
20260506100538 77 109 4.0 8.0 0.00 0.00 0.00 85 1007.3
20260506100046 77 138 4.0 9.0 0.00 0.00 0.00 85 1007.3
20260506095538 77 128 5.0 10.0 0.00 0.00 0.00 85 1007.2
20260506095038 77 125 4.0 10.0 0.00 0.00 0.00 85 1007.3
20260506094559 77 115 3.0 11.0 0.00 0.00 0.00 85 1007.3
20260506094034 77 123 5.0 11.0 0.00 0.00 0.00 85 1007.3
20260506093539 77 130 6.0 11.0 0.00 0.00 0.00 85 1007.2
20260506093048 77 126 6.0 11.0 0.00 0.00 0.00 85 1007.3
20260506092534 77 109 6.0 10.0 0.00 0.00 0.00 85 1007.2
20260506092037 77 114 5.0 12.0 0.00 0.00 0.00 85 1007.1
20260506091550 77 123 6.0 12.0 0.00 0.00 0.00 85 1007.1
20260506091044 77 128 6.0 12.0 0.00 0.00 0.00 85 1007.1
20260506090534 77 103 6.0 12.0 0.00 0.00 0.00 85 1006.8
20260506090048 77 123 5.0 14.0 0.00 0.00 0.00 85 1006.8
20260506085535 77 147 8.0 14.0 0.00 0.00 0.00 85 1006.9
20260506085035 77 129 8.0 14.0 0.00 0.00 0.00 85 1006.8
20260506084546 77 113 8.0 13.0 0.00 0.00 0.00 85 1006.9
20260506084039 77 126 8.0 13.0 0.00 0.00 0.00 85 1006.8
20260506083538 77 133 4.0 10.0 0.00 0.00 0.00 85 1006.8
20260506083046 77 126 5.0 10.0 0.00 0.00 0.00 84 1006.7
20260506082535 77 126 4.0 11.0 0.00 0.00 0.00 84 1006.7
20260506082037 77 122 6.0 11.0 0.00 0.00 0.00 84 1006.5
20260506081555 77 131 5.0 9.0 0.00 0.00 0.00 84 1006.7
20260506081034 77 119 6.0 11.0 0.00 0.00 0.00 84 1006.7
20260506080534 77 109 5.0 11.0 0.00 0.00 0.00 84 1006.7
20260506073045 78 136 7.0 16.0 0.00 0.00 0.00 82 1006.7
20260506072538 78 130 7.0 16.0 0.00 0.00 0.00 81 1006.6
20260506072035 78 109 10.0 16.0 0.00 0.00 0.00 81 1006.6
20260506071549 78 108 8.0 14.0 0.00 0.00 0.00 81 1006.6
20260506071036 78 138 7.0 12.0 0.00 0.00 0.00 80 1006.6
20260506070534 79 103 6.0 11.0 0.00 0.00 0.00 80 1006.7
20260506062037 78 117 4.0 8.0 0.00 0.00 0.00 78 1006.7
20260506061546 78 76 3.0 10.0 0.00 0.00 0.00 78 1006.6
20260506061035 78 76 4.0 10.0 0.00 0.00 0.00 78 1006.6
20260506060537 78 84 4.0 9.0 0.00 0.00 0.00 78 1006.6
20260506051035 77 64 2.0 5.0 0.00 0.00 0.00 78 1006.5
20260506050535 77 68 2.0 4.0 0.00 0.00 0.00 77 1006.5
20260506045034 77 68 2.0 5.0 0.00 0.00 0.00 76 1006.6
20260506044545 78 68 3.0 6.0 0.00 0.00 0.00 76 1006.5
20260506044034 78 84 3.0 6.0 0.00 0.00 0.00 75 1006.7
20260506043535 78 94 2.0 4.0 0.00 0.00 0.00 75 1006.6
20260506043046 78 64 2.0 4.0 0.00 0.00 0.00 74 1006.6
20260506042537 78 64 1.0 3.0 0.00 0.00 0.00 74 1006.5
20260506042038 78 64 1.0 3.0 0.00 0.00 0.00 74 1006.5
20260506041550 78 0 1.0 2.0 0.00 0.00 0.00 73 1006.3
20260506041037 79 0 0.0 3.0 0.00 0.00 0.00 73 1006.3
20260506040535 79 0 0.0 3.0 0.00 0.00 0.00 73 1006.3
20260506040053 79 64 1.0 3.0 0.00 0.00 0.00 72 1006.2
20260506035535 79 64 1.0 3.0 0.00 0.00 0.00 72 1006.2
20260506035035 79 64 1.0 4.0 0.00 0.00 0.00 72 1006.2
20260506034544 79 64 2.0 4.0 0.00 0.00 0.00 71 1006.2
20260506034034 79 64 2.0 4.0 0.00 0.00 0.00 71 1006.1
20260506033534 79 64 2.0 4.0 0.00 0.00 0.00 71 1006.1
20260506033050 80 88 1.0 3.0 0.00 0.00 0.00 70 1006.0
20260506032535 80 88 2.0 3.0 0.00 0.00 0.00 70 1006.0
20260506032038 80 88 1.0 4.0 0.00 0.00 0.00 69 1005.8
20260506031557 80 88 2.0 4.0 0.00 0.00 0.00 69 1005.8
20260506031035 80 88 1.0 3.0 0.00 0.00 0.00 68 1005.8
20260506030536 81 88 1.0 3.0 0.00 0.00 0.00 68 1005.7
20260506030053 81 88 1.0 3.0 0.00 0.00 0.00 68 1005.6
20260506025534 81 88 1.0 3.0 0.00 0.00 0.00 67 1005.4
20260506025034 81 88 1.0 3.0 0.00 0.00 0.00 66 1005.5
20260506024600 82 88 1.0 3.0 0.00 0.00 0.00 66 1005.3
20260506024036 82 88 1.0 3.0 0.00 0.00 0.00 65 1005.3
20260506023536 83 88 1.0 3.0 0.00 0.00 0.00 64 1005.2
20260506023050 83 88 2.0 3.0 0.00 0.00 0.00 63 1005.2
20260506022537 83 88 1.0 3.0 0.00 0.00 0.00 62 1005.2
20260506022035 84 88 1.0 3.0 0.00 0.00 0.00 61 1005.1
20260506021549 84 88 1.0 4.0 0.00 0.00 0.00 60 1005.0
20260506021036 84 88 1.0 4.0 0.00 0.00 0.00 60 1005.1
20260506020535 84 96 2.0 5.0 0.00 0.00 0.00 60 1005.0
20260506020045 84 109 2.0 9.0 0.00 0.00 0.00 59 1004.9
20260506015539 84 139 3.0 9.0 0.00 0.00 0.00 59 1004.9
20260506015035 85 130 4.0 8.0 0.00 0.00 0.00 58 1004.7
20260506014545 85 132 2.0 6.0 0.00 0.00 0.00 57 1004.6
20260506014034 85 133 3.0 7.0 0.00 0.00 0.00 57 1004.7
20260506013535 85 115 3.0 7.0 0.00 0.00 0.00 56 1004.7
20260506013050 86 113 2.0 4.0 0.00 0.00 0.00 56 1004.6
20260506012535 86 113 2.0 6.0 0.00 0.00 0.00 55 1004.7
20260506012039 86 113 2.0 6.0 0.00 0.00 0.00 55 1004.6
20260506011540 86 98 1.0 6.0 0.00 0.00 0.00 55 1004.6
20260506011036 86 111 3.0 6.0 0.00 0.00 0.00 54 1004.5
20260506010537 87 121 2.0 9.0 0.00 0.00 0.00 54 1004.5
20260506010048 87 108 2.0 10.0 0.00 0.00 0.00 54 1004.4
20260506005535 87 129 5.0 10.0 0.00 0.00 0.00 53 1004.2
20260506005035 87 135 6.0 11.0 0.00 0.00 0.00 53 1004.2
20260506004546 87 97 5.0 11.0 0.00 0.00 0.00 53 1004.1
20260506004035 87 119 4.0 10.0 0.00 0.00 0.00 54 1004.2
20260506003535 87 101 4.0 10.0 0.00 0.00 0.00 53 1004.1
20260506003045 87 136 5.0 11.0 0.00 0.00 0.00 53 1004.1
20260506002537 88 126 8.0 11.0 0.00 0.00 0.00 53 1004.1
20260506002037 88 121 7.0 13.0 0.00 0.00 0.00 53 1004.0
20260506001549 88 135 6.0 13.0 0.00 0.00 0.00 53 1004.0
20260506001035 88 153 6.0 11.0 0.00 0.00 0.00 53 1004.1
20260506000537 88 117 7.0 11.0 0.00 0.00 0.00 52 1004.0
20260506000043 88 105 4.0 11.0 0.00 0.00 0.00 53 1004.0
20260505235536 88 128 6.0 11.0 0.00 0.00 0.00 52 1004.0
20260505235036 88 107 7.0 12.0 0.00 0.00 0.00 53 1004.2
20260505234551 88 136 6.0 12.0 0.00 0.00 0.00 53 1004.2
20260505234035 88 147 5.0 9.0 0.00 0.00 0.00 54 1004.3
20260505233536 88 84 4.0 9.0 0.00 0.00 0.00 55 1004.3
20260505233047 88 128 4.0 9.0 0.00 0.00 0.00 54 1004.3
20260505232534 88 64 3.0 8.0 0.00 0.00 0.00 53 1004.4
20260505232035 88 76 4.0 9.0 0.00 0.00 0.00 52 1004.4
20260505231559 88 98 5.0 9.0 0.00 0.00 0.00 53 1004.4
20260505231034 88 0 3.0 9.0 0.00 0.00 0.00 55 1004.5
20260505230534 88 108 6.0 9.0 0.00 0.00 0.00 54 1004.5
20260505230055 88 95 3.0 8.0 0.00 0.00 0.00 54 1004.6
20260505225536 88 82 4.0 8.0 0.00 0.00 0.00 53 1004.6
20260505225038 88 111 3.0 9.0 0.00 0.00 0.00 54 1004.6
20260505224544 88 88 4.0 9.0 0.00 0.00 0.00 54 1004.7
20260505224035 88 76 4.0 9.0 0.00 0.00 0.00 53 1004.7
20260505223536 88 40 3.0 8.0 0.00 0.00 0.00 54 1004.6
20260505223050 88 81 3.0 8.0 0.00 0.00 0.00 54 1004.6
20260505222537 88 63 1.0 9.0 0.00 0.00 0.00 54 1004.6
20260505222034 88 76 3.0 9.0 0.00 0.00 0.00 54 1004.6
20260505221545 88 38 4.0 7.0 0.00 0.00 0.00 55 1004.7
20260505221036 88 5 2.0 9.0 0.00 0.00 0.00 57 1004.8
20260505220536 87 336 4.0 9.0 0.00 0.00 0.00 56 1004.8
20260505220046 87 44 4.0 8.0 0.00 0.00 0.00 55 1004.9
20260505215535 87 36 3.0 7.0 0.00 0.00 0.00 55 1004.9
20260505215034 87 30 2.0 12.0 0.00 0.00 0.00 56 1004.9
20260505214546 87 11 3.0 12.0 0.00 0.00 0.00 56 1005.2
20260505214034 87 61 5.0 12.0 0.00 0.00 0.00 56 1005.1
20260505213535 87 34 6.0 11.0 0.00 0.00 0.00 55 1005.3
20260505213053 87 89 4.0 8.0 0.00 0.00 0.00 55 1005.3
20260505212533 87 46 3.0 8.0 0.00 0.00 0.00 56 1005.4
20260505212037 87 58 3.0 9.0 0.00 0.00 0.00 57 1005.4
20260505211552 86 86 4.0 11.0 0.00 0.00 0.00 57 1005.4
20260505211039 87 94 3.0 11.0 0.00 0.00 0.00 56 1005.4
20260505210535 87 60 5.0 11.0 0.00 0.00 0.00 54 1005.5
20260505210043 87 41 4.0 9.0 0.00 0.00 0.00 56 1005.6
20260505205538 87 0 1.0 7.0 0.00 0.00 0.00 56 1005.8
20260505205034 87 78 2.0 9.0 0.00 0.00 0.00 54 1005.7
20260505204554 87 47 4.0 9.0 0.00 0.00 0.00 54 1005.8
20260505204034 88 59 4.0 9.0 0.00 0.00 0.00 51 1005.9
20260505203710 89 360 2.0 10.0 0.00 0.00 0.00 53 1005.9
20260505201034 89 0 1.0 8.0 0.00 0.00 0.00 51 1006.2
20260505200535 89 352 2.0 7.0 0.00 0.00 0.00 53 1006.2
20260505200052 89 42 2.0 7.0 0.00 0.00 0.00 55 1006.3
20260505195536 88 115 3.0 8.0 0.00 0.00 0.00 53 1006.2
20260505195034 88 49 2.0 8.0 0.00 0.00 0.00 53 1006.3
20260505194551 88 46 1.0 8.0 0.00 0.00 0.00 54 1006.4
20260505194034 87 5 2.0 8.0 0.00 0.00 0.00 54 1006.4
20260505193534 87 40 1.0 5.0 0.00 0.00 0.00 54 1006.5
20260505193047 87 140 1.0 4.0 0.00 0.00 0.00 56 1006.5
20260505192539 87 324 1.0 9.0 0.00 0.00 0.00 54 1006.6
20260505192035 87 44 3.0 9.0 0.00 0.00 0.00 55 1006.6
20260505191606 87 51 2.0 9.0 0.00 0.00 0.00 57 1006.7
20260505191034 87 28 4.0 8.0 0.00 0.00 0.00 56 1006.9
20260505190534 87 69 2.0 5.0 0.00 0.00 0.00 57 1007.0
20260505190045 87 315 2.0 7.0 0.00 0.00 0.00 57 1007.0
20260505185534 87 336 3.0 7.0 0.00 0.00 0.00 58 1007.1
20260505185035 87 236 1.0 5.0 0.00 0.00 0.00 59 1007.1
20260505184546 86 135 1.0 5.0 0.00 0.00 0.00 60 1007.2
20260505184036 86 46 1.0 6.0 0.00 0.00 0.00 62 1007.3
20260505183535 86 138 3.0 6.0 0.00 0.00 0.00 62 1007.4
20260505183049 85 214 1.0 6.0 0.00 0.00 0.00 62 1007.4
20260505182535 85 66 3.0 6.0 0.00 0.00 0.00 63 1007.6
20260505182038 85 124 1.0 6.0 0.00 0.00 0.00 62 1007.6
20260505181544 85 212 2.0 6.0 0.00 0.00 0.00 62 1007.7
20260505181035 85 163 1.0 5.0 0.00 0.00 0.00 64 1007.7
20260505180533 85 99 1.0 5.0 0.00 0.00 0.00 66 1007.7
20260505180100 84 13 2.0 6.0 0.00 0.00 0.00 66 1007.7
20260505175536 84 182 2.0 6.0 0.00 0.00 0.00 66 1007.8
20260505175039 83 276 1.0 6.0 0.00 0.00 0.00 66 1007.9
20260505174601 83 225 3.0 6.0 0.00 0.00 0.00 65 1007.9
20260505174038 83 202 3.0 6.0 0.00 0.00 0.00 66 1008.1
20260505173536 83 65 1.0 7.0 0.00 0.00 0.00 67 1008.1
20260505173052 82 360 2.0 7.0 0.00 0.00 0.00 68 1008.2
20260505172537 82 64 1.0 10.0 0.00 0.00 0.00 68 1008.2
20260505172035 82 99 5.0 10.0 0.00 0.00 0.00 67 1008.2
20260505171549 82 0 1.0 4.0 0.00 0.00 0.00 68 1008.3
20260505171037 82 220 1.0 4.0 0.00 0.00 0.00 69 1008.4
20260505170540 81 298 1.0 7.0 0.00 0.00 0.00 70 1008.5
20260505170049 81 167 2.0 7.0 0.00 0.00 0.00 70 1008.3
20260505165536 80 163 3.0 7.0 0.00 0.00 0.00 71 1008.4
20260505165036 80 188 2.0 5.0 0.00 0.00 0.00 71 1008.3
20260505164549 80 360 1.0 5.0 0.00 0.00 0.00 72 1008.3
20260505164037 79 87 0.0 7.0 0.00 0.00 0.00 72 1008.3
20260505163536 79 191 0.0 7.0 0.00 0.00 0.00 75 1008.4
20260505163050 78 189 2.0 5.0 0.00 0.00 0.00 74 1008.3
20260505162535 78 0 2.0 8.0 0.00 0.00 0.00 75 1008.6
20260505162036 78 0 1.0 8.0 0.00 0.00 0.00 76 1008.6
20260505161552 78 187 2.0 7.0 0.00 0.00 0.00 76 1008.5
20260505161038 77 192 1.0 5.0 0.00 0.00 0.00 77 1008.6
20260505160537 77 0 1.0 5.0 0.00 0.00 0.00 77 1008.6
20260505153047 75 158 3.0 8.0 0.00 0.00 0.00 80 1008.5
20260505152537 75 132 4.0 11.0 0.00 0.00 0.00 80 1008.4
20260505152035 75 161 5.0 11.0 0.00 0.00 0.00 81 1008.3
20260505151548 74 164 4.0 11.0 0.00 0.00 0.00 82 1008.2
20260505151038 74 146 7.0 11.0 0.00 0.00 0.00 81 1008.2
20260505150536 74 138 6.0 10.0 0.00 0.00 0.00 82 1008.2
20260505140536 72 151 5.0 14.0 0.00 0.00 0.00 87 1008.2